Great Falls, MT

3:56 AM MDT on May 27, 2017 (GMT -0600)
Great Falls International

Weather History for KGTF - January, 2014

Change the Weather History Date:

Friday, January 17, 2014

  Actual Average Record
Temperature  
Mean Temperature 41 °F 25 °F  
Max Temperature 58 °F 36 °F 61 °F (1914)
Min Temperature 24 °F 15 °F -29 °F (1930)
Degree Days  
Heating Degree Days 24 40  
Month to date heating degree days 567 685  
Since 1 July heating degree days 3721 3902  
Cooling Degree Days 0 0  
Month to date cooling degree days 0 0  
Year to date cooling degree days 0 0  
Moisture  
Dew Point 20 °F    
Average Humidity 50    
Maximum Humidity 75    
Minimum Humidity 24    
Precipitation  
Precipitation 0.00 in 0.02 in 0.47 in (1954)
Month to date precipitation 0.44 0.29  
Year to date precipitation 0.44 0.29  
Snow  
Snow 0.00 in 0.20 in 4.50 in (1954)
Month to date snowfall 9.2 4.9  
Since 1 July snowfall 32.1 28.1  
Snow Depth 0.00 in    
Sea Level Pressure  
Sea Level Pressure 30.18 in    
Wind  
Wind Speed 12 mph (WSW)    
Max Wind Speed 23 mph    
Max Gust Speed 32 mph    
Visibility 10 miles    
Events      
T = Trace of Precipitation, MM = Missing Value Source: NWS Daily Summary

Daily Weather History Graph

Daily Weather History Graph

Search for Another Location

Airport or City:

Trip Planner

Search our weather history database for the weather conditions in past years. The results will help you decide how hot, cold, wet, or windy it might be!

Date:

Astronomy

Jan. 17, 2014 Rise Set
Actual Time 8:07 AM MST 5:04 PM MST
Civil Twilight 7:32 AM MST 5:39 PM MST
Nautical Twilight 6:54 AM MST 6:17 PM MST
Astronomical Twilight 6:17 AM MST 6:53 PM MST
Moon 7:05 PM MST (1/17) 8:27 AM MST (1/17)
Length of Visible Light 10h 06m
Length of Day
8h 57m
Full, 98% of the Moon is Illuminated
Jan 17
Full
Jan 23
Last Quarter
Jan 30
New
Feb 6
First Quarter
Feb 14
Full

Hourly Weather History & Observations

Time (MST) Temp. Windchill Dew Point Humidity Pressure Visibility Wind Dir Wind Speed Gust Speed Precip Events Conditions
12:53 AM 35.1 °F 25.5 °F 18.0 °F 50% 30.21 in 10.0 mi SW 15.0 mph - N/A   Clear
1:53 AM 37.0 °F 28.1 °F 19.0 °F 48% 30.18 in 10.0 mi SSW 15.0 mph - N/A   Clear
2:53 AM 37.0 °F 28.1 °F 19.0 °F 48% 30.17 in 10.0 mi SSW 15.0 mph - N/A   Clear
3:53 AM 36.0 °F 27.5 °F 18.0 °F 48% 30.15 in 10.0 mi SSW 12.7 mph - N/A   Clear
4:53 AM 37.9 °F 29.6 °F 18.0 °F 45% 30.15 in 10.0 mi SW 13.8 mph - N/A   Clear
5:53 AM 39.0 °F 30.3 °F 17.1 °F 41% 30.12 in 10.0 mi SW 16.1 mph - N/A   Clear
6:53 AM 37.9 °F 29.2 °F 17.1 °F 43% 30.12 in 10.0 mi SW 15.0 mph - N/A   Clear
7:53 AM 37.0 °F 28.5 °F 17.1 °F 44% 30.12 in 10.0 mi SW 13.8 mph - N/A   Clear
8:53 AM 39.9 °F 32.9 °F 18.0 °F 41% 30.13 in 10.0 mi SW 11.5 mph - N/A   Clear
9:53 AM 44.1 °F 37.1 °F 19.0 °F 37% 30.14 in 10.0 mi SW 15.0 mph - N/A   Clear
10:53 AM 46.9 °F - 19.9 °F 34% 30.16 in 10.0 mi SW 10.4 mph - N/A   Clear
11:53 AM 53.1 °F - 17.1 °F 24% 30.12 in 10.0 mi WSW 20.7 mph 26.5 mph N/A   Clear
12:53 PM 54.0 °F - 19.0 °F 25% 30.12 in 10.0 mi West 18.4 mph 24.2 mph N/A   Clear
1:53 PM 55.9 °F - 19.0 °F 24% 30.11 in 10.0 mi West 20.7 mph 28.8 mph N/A   Clear
2:32 PM 53.6 °F - 19.4 °F 26% 30.09 in 10.0 mi North 15.0 mph - N/A   Clear
2:53 PM 51.1 °F - 21.0 °F 31% 30.15 in 10.0 mi North 15.0 mph - N/A   Clear
3:53 PM 51.1 °F - 21.9 °F 32% 30.17 in 10.0 mi North 8.1 mph - N/A   Clear
4:53 PM 43.0 °F 38.2 °F 24.1 °F 47% 30.20 in 10.0 mi North 8.1 mph - N/A   Clear
5:53 PM 39.0 °F 33.4 °F 23.0 °F 53% 30.23 in 10.0 mi North 8.1 mph - N/A   Clear
6:53 PM 36.0 °F 33.3 °F 23.0 °F 59% 30.26 in 10.0 mi NW 3.5 mph - N/A   Clear
7:53 PM 30.9 °F 24.3 °F 23.0 °F 72% 30.29 in 10.0 mi SSW 6.9 mph - N/A   Clear
8:53 PM 32.0 °F 27.5 °F 23.0 °F 69% 30.30 in 10.0 mi SW 4.6 mph - N/A   Clear
9:53 PM 28.9 °F 22.8 °F 21.9 °F 75% 30.31 in 10.0 mi SW 5.8 mph - N/A   Clear
10:53 PM 28.9 °F 21.1 °F 21.9 °F 75% 30.31 in 10.0 mi SW 8.1 mph - N/A   Clear
11:53 PM 27.0 °F 16.7 °F 21.9 °F 81% 30.31 in 10.0 mi SW 11.5 mph - N/A   Clear